Torna al catalogo

STARLINK-32544

AttivoComunicazioniVLEO
NORAD 61917·PAYLOAD·🇺🇸 United States

Lanciato Nov 11, 2024 da Cape Canaveral Space Force Station

Loading…

Prossimi Passaggi (prossime 24 ore)

TLE

AggiornatoSource: CelesTrak SupGP

Epoca: Sep 14, 2026, 14:25 UTC

1 61917C 24207F   26257.60118056  .00055561  00000+0  20127-2 0  2570
2 61917  43.0001 294.7424 0001538 274.8496 139.6246 15.27546059    19

Traccia STARLINK-32544 in tempo reale con AllMySat

Download on the App Store